Waarnemingen

Advertentie
Mijn weer
Sennybridge, Groot Brittannië (3507): temperatuur & dauwpunt: 30.05.2020 20:00:00 - 05.06.2020 20:00:00 (BST)Sennybridge, Groot Brittannië (3507): temperatuur -20cm & temperatuur -100cm: 30.05.2020 20:00:00 - 05.06.2020 20:00:00 (BST)Sennybridge, Groot Brittannië (3507): windsnelheid: 30.05.2020 20:00:00 - 05.06.2020 20:00:00 (BST)Sennybridge, Groot Brittannië (3507): windrichting: 30.05.2020 20:00:00 - 05.06.2020 20:00:00 (BST)Sennybridge, Groot Brittannië (3507): luchtdruk: 30.05.2020 20:00:00 - 05.06.2020 20:00:00 (BST)Sennybridge, Groot Brittannië (3507): zicht: 30.05.2020 20:00:00 - 05.06.2020 20:00:00 (BST)Sennybridge, Groot Brittannië (3507): neerslag: 30.05.2020 20:00:00 - 05.06.2020 20:00:00 (BST)
Datum & Tijd tt [°C] td [°C] tt -20cm [°C] tt -100cm [°C] ff [km/u] ff [kn] dd ppp [hPa] vv [km] rr [mm]
05.06.2020 20:00:00 8,8 4,0 - - 5 3 WNW 1000,2 50 0,0
05.06.2020 19:00:00 9,8 3,0 - - 5 3 WNW 999,8 35 0,0
05.06.2020 18:00:00 10,0 3,2 - - 5 3 NW 999,9 40 0,0
05.06.2020 17:00:00 12,2 4,4 - - 8 4 NW 999,7 45 0,0
05.06.2020 16:00:00 13,2 5,0 - - 9 5 NW 999,7 20 0,0
05.06.2020 15:00:00 13,1 5,6 - - 9 5 NW 999,8 35 0,0
05.06.2020 14:00:00 11,3 6,3 - - 5 3 NNW 999,8 40 0,2
05.06.2020 13:00:00 11,6 6,0 - - 9 5 NNW 999,5 30 0,0
05.06.2020 12:00:00 10,6 6,9 - - 9 5 NW 999,4 25 0,2
05.06.2020 11:00:00 10,7 6,5 - - 5 3 NW 999,5 40 0,0
05.06.2020 10:00:00 9,2 6,7 14,2 12,2 8 4 NNW 999,5 30 0,4
05.06.2020 09:00:00 8,2 6,1 - - 5 3 NNW 999,7 11 0,2
05.06.2020 08:00:00 7,8 6,5 - - 5 3 NNW 999,3 20 0,6
05.06.2020 07:00:00 8,0 5,6 - - 5 3 NW 998,8 16 0,0
05.06.2020 06:00:00 7,8 5,4 - - 5 3 NW 999,0 30 0,0
05.06.2020 05:00:00 7,6 5,4 - - 8 4 NW 999,1 45 0,0
05.06.2020 04:00:00 7,8 6,4 - - 4 2 NW 999,2 35 0,0
05.06.2020 03:00:00 8,4 7,3 - - 4 2 WNW 999,7 35 0,0
05.06.2020 02:00:00 8,7 7,6 - - 2 1 WNW 1000,2 50 0,0
05.06.2020 01:00:00 9,2 8,3 - - 4 2 NW 1000,2 45 0,0
05.06.2020 00:00:00 10,1 9,9 - - 4 2 W 1000,3 23 6,2
04.06.2020 23:00:00 9,9 9,8 - - 5 3 W 1000,7 6 2,0
04.06.2020 22:00:00 9,7 9,6 - - 5 3 W 1001,6 10 0,2
04.06.2020 21:00:00 9,7 9,4 - - 4 2 W 1002,0 8 1,0
04.06.2020 20:00:00 9,5 9,2 - - 2 1 WNW 1002,5 8 1,0
04.06.2020 19:00:00 9,3 8,7 - - 11 6 W 1002,8 18 0,2
04.06.2020 18:00:00 9,6 8,7 - - 5 3 WNW 1003,3 6 0,0
04.06.2020 17:00:00 9,4 8,3 - - 5 3 WNW 1003,9 16 0,0
04.06.2020 16:00:00 9,5 8,3 - - 4 2 NW 1004,6 40 0,4
04.06.2020 15:00:00 9,3 8,4 - - 5 3 WNW 1005,1 3,4 0,2
04.06.2020 14:00:00 9,1 7,4 - - 4 2 W 1005,7 4,3 0,0
04.06.2020 13:00:00 9,7 7,5 - - 4 2 NW 1005,8 7 0,0
04.06.2020 12:00:00 12,9 6,9 - - 5 3 NNW 1005,5 50 0,0
04.06.2020 11:00:00 11,2 5,9 - - 5 3 NW 1006,1 30 0,0
04.06.2020 10:00:00 10,3 6,4 14,7 12,0 5 3 NNW 1006,8 40 0,0
04.06.2020 09:00:00 9,6 7,3 - - 5 3 NNW 1007,4 35 0,0
04.06.2020 08:00:00 8,1 7,3 - - 2 1 NW 1007,9 50 0,0
04.06.2020 07:00:00 6,9 6,8 - - 2 1 NNO 1008,2 35 0,0
04.06.2020 06:00:00 5,0 4,9 - - 4 2 O 1008,7 30 0,0
04.06.2020 05:00:00 5,1 5,1 - - 5 3 N 1009,1 45 0,0
04.06.2020 04:00:00 2,6 1,9 - - 2 1 O 1009,6 8 0,0
04.06.2020 03:00:00 5,0 4,8 - - 4 2 ZW 1010,0 6 0,0
04.06.2020 02:00:00 4,8 4,4 - - 2 1 WZW 1010,9 4,4 0,0
04.06.2020 01:00:00 6,4 5,9 - - 8 4 NO 1011,2 8 0,0
04.06.2020 00:00:00 7,3 6,4 - - 4 2 NO 1011,2 9 0,0
03.06.2020 23:00:00 8,6 7,1 - - 11 6 NNO 1011,6 26 0,0
03.06.2020 22:00:00 8,6 7,3 - - 13 7 NNO 1011,3 23 0,0
03.06.2020 21:00:00 9,1 7,9 - - 15 8 NNO 1011,2 27 0,0
03.06.2020 20:00:00 9,3 8,1 - - 21 11 NNO 1010,9 18 0,0
03.06.2020 19:00:00 9,9 9,4 - - 15 8 NNO 1010,8 9 0,2
03.06.2020 18:00:00 10,6 9,8 - - 15 8 NO 1010,3 5 0,2
03.06.2020 17:00:00 10,9 9,9 - - 13 7 NNO 1010,3 7 0,0
03.06.2020 16:00:00 11,7 9,7 - - 13 7 NO 1010,0 35 0,0
03.06.2020 15:00:00 11,1 9,7 - - 13 7 ONO 1010,0 25 0,0
03.06.2020 14:00:00 11,7 10,9 - - 11 6 NNO 1009,9 6 0,4
03.06.2020 13:00:00 12,9 11,5 - - 5 3 NNO 1009,5 16 0,2
03.06.2020 12:00:00 13,2 11,2 - - 9 5 NO 1009,6 50 0,0
03.06.2020 11:00:00 12,9 11,9 - - 9 5 NO 1010,0 19 0,0
03.06.2020 10:00:00 11,8 10,9 15,7 12,0 8 4 NNO 1010,4 35 0,8
03.06.2020 09:00:00 11,4 11,0 - - 9 5 NO 1010,7 4,4 5,2
03.06.2020 08:00:00 11,5 11,1 - - 2 1 Z 1011,0 8 0,4
03.06.2020 07:00:00 11,1 10,7 - - 8 4 ZW 1011,0 7 0,8
03.06.2020 06:00:00 11,0 10,2 - - 4 2 NO 1011,5 8 1,0
03.06.2020 05:00:00 11,1 9,8 - - 5 3 NNO 1011,8 18 1,8
03.06.2020 04:00:00 12,2 8,1 - - 2 1 NO 1012,6 28 0,0
03.06.2020 03:00:00 13,2 7,4 - - 2 1 NO 1012,6 50 0,0
03.06.2020 02:00:00 12,8 7,4 - - 2 1 NNO 1013,7 45 0,0
03.06.2020 01:00:00 13,3 7,4 - - 2 1 NW 1014,4 50 0,0
03.06.2020 00:00:00 13,3 7,1 - - 4 2 ONO 1015,3 50 0,0
02.06.2020 23:00:00 13,1 7,7 - - 4 2 NNO 1015,9 50 0,0
02.06.2020 22:00:00 12,3 7,7 - - 4 2 ONO 1016,3 50 0,0
02.06.2020 21:00:00 15,9 8,0 - - 4 2 O 1016,1 40 0,0
02.06.2020 20:00:00 19,1 8,1 - - 4 2 NNW 1016,0 45 0,0
02.06.2020 19:00:00 20,7 8,9 - - 4 2 NNW 1016,2 35 0,0
02.06.2020 18:00:00 22,0 9,8 - - 8 4 NNW 1016,5 40 0,0
02.06.2020 17:00:00 23,4 10,7 - - 5 3 NW 1016,8 45 0,0
02.06.2020 16:00:00 23,6 10,2 - - 5 3 N 1017,3 35 0,0
02.06.2020 15:00:00 22,0 8,6 - - 5 3 NW 1018,1 29 0,0
02.06.2020 14:00:00 23,0 9,3 - - 8 4 ONO 1018,6 30 0,0
02.06.2020 13:00:00 21,6 7,0 - - 11 6 NO 1019,5 35 0,0
02.06.2020 12:00:00 20,5 8,1 - - 9 5 ONO 1020,3 29 0,0
02.06.2020 11:00:00 19,2 9,1 - - 8 4 NO 1020,9 26 0,0
02.06.2020 10:00:00 19,0 10,3 - - 4 2 NNW 1021,2 12 -
02.06.2020 09:00:00 15,5 9,8 - - 8 4 N 1022,1 22 -
02.06.2020 08:00:00 14,2 10,1 - - 5 3 N 1022,4 19 0,0
02.06.2020 07:00:00 10,6 8,7 - - 4 2 N 1023,0 17 0,0
02.06.2020 06:00:00 9,5 7,3 - - 5 3 N 1023,1 18 0,0
02.06.2020 05:00:00 8,4 5,5 - - 2 1 NNW 1023,4 15 0,0
02.06.2020 04:00:00 9,8 6,1 - - 2 1 ONO 1023,5 10 0,0
02.06.2020 03:00:00 8,1 6,6 - - 2 1 ONO 1024,1 18 0,0
02.06.2020 02:00:00 12,6 7,7 - - 8 4 NO 1023,8 16 0,0
02.06.2020 01:00:00 11,4 8,0 - - 5 3 NO 1024,0 25 0,0
02.06.2020 00:00:00 9,8 6,2 - - 4 2 ONO 1024,3 15 0,0
01.06.2020 23:00:00 10,6 6,7 - - 2 1 NNO 1024,1 10 0,0
01.06.2020 22:00:00 13,5 6,5 - - 2 1 ONO 1023,4 23 0,0
01.06.2020 21:00:00 17,5 6,7 - - 4 2 ONO 1022,4 21 0,0
01.06.2020 20:00:00 19,8 4,9 - - 9 5 NO 1022,0 18 0,0
01.06.2020 19:00:00 20,8 4,2 - - 8 4 NO 1021,9 17 0,0
01.06.2020 18:00:00 21,2 5,2 - - 11 6 O 1022,0 16 0,0
01.06.2020 17:00:00 21,1 5,6 - - 11 6 NO 1022,3 24 0,0
01.06.2020 16:00:00 21,6 6,0 - - 11 6 NNO 1022,6 45 0,0
01.06.2020 15:00:00 20,6 5,6 - - 11 6 NNO 1022,9 35 0,0
01.06.2020 14:00:00 20,1 5,5 - - 11 6 NO 1023,2 29 0,0
01.06.2020 13:00:00 19,5 6,5 - - 13 7 ONO 1023,4 45 0,0
01.06.2020 12:00:00 18,7 7,4 - - 15 8 NNO 1023,7 50 0,0
01.06.2020 11:00:00 17,2 6,6 - - 13 7 NO 1024,1 35 0,0
01.06.2020 10:00:00 15,4 8,3 15,0 11,7 13 7 NO 1024,5 22 0,0
01.06.2020 09:00:00 13,8 7,4 - - 11 6 NNO 1024,9 35 0,0
01.06.2020 08:00:00 12,3 7,2 - - 11 6 NNO 1025,0 19 0,0
01.06.2020 07:00:00 10,7 6,3 - - 8 4 NNO 1025,0 29 0,0
01.06.2020 06:00:00 10,0 4,8 - - 15 8 NO 1024,9 11 0,0
01.06.2020 05:00:00 10,3 4,8 - - 11 6 ONO 1024,6 11 0,0
01.06.2020 04:00:00 10,8 5,1 - - 8 4 NO 1024,7 11 0,0
01.06.2020 03:00:00 9,9 4,9 - - 5 3 NNO 1025,0 10 0,0
01.06.2020 02:00:00 12,4 5,4 - - 8 4 NO 1024,3 19 0,0
01.06.2020 01:00:00 13,8 5,5 - - 15 8 O 1024,3 9 0,0
01.06.2020 00:00:00 14,9 5,9 - - 13 7 O 1023,6 13 0,0
31.05.2020 23:00:00 16,0 6,2 - - 15 8 OZO 1023,2 12 0,0
31.05.2020 22:00:00 16,7 6,2 - - 13 7 O 1022,6 14 0,0
31.05.2020 21:00:00 18,7 6,4 - - 11 6 ONO 1021,8 17 0,0
31.05.2020 20:00:00 19,8 6,7 - - 11 6 O 1021,5 19 0,0
31.05.2020 19:00:00 21,4 7,3 - - 13 7 O 1021,1 30 0,0
31.05.2020 18:00:00 21,3 6,7 - - 13 7 O 1020,9 12 0,0
31.05.2020 17:00:00 20,7 6,8 - - 16 9 O 1021,1 12 0,0
31.05.2020 16:00:00 20,6 7,7 - - 16 9 OZO 1021,2 20 0,0
31.05.2020 15:00:00 22,5 9,3 - - 15 8 ZO 1021,2 45 0,0
31.05.2020 14:00:00 21,6 7,6 - - 21 11 ZZO 1021,5 45 0,0
31.05.2020 13:00:00 20,6 9,0 - - 18 10 OZO 1021,8 27 0,0
31.05.2020 12:00:00 20,0 10,0 - - 15 8 OZO 1021,8 21 0,0
31.05.2020 11:00:00 18,1 8,6 - - 13 7 O 1022,0 40 0,0
31.05.2020 10:00:00 16,4 7,0 14,9 11,7 13 7 ONO 1022,3 26 0,0
31.05.2020 09:00:00 15,2 6,5 - - 13 7 O 1022,3 19 0,0
31.05.2020 08:00:00 13,1 6,9 - - 8 4 NNO 1022,6 18 0,0
31.05.2020 07:00:00 10,9 5,6 - - 5 3 N 1022,8 7 0,0
31.05.2020 06:00:00 10,7 4,7 - - 9 5 ONO 1022,8 10 0,0
31.05.2020 05:00:00 10,2 4,2 - - 13 7 O 1022,8 8 0,0
31.05.2020 04:00:00 12,0 4,0 - - 13 7 O 1022,4 40 0,0
31.05.2020 03:00:00 11,5 4,0 - - 16 9 O 1022,8 12 0,0
31.05.2020 02:00:00 12,5 4,2 - - 18 10 O 1022,9 18 0,0
31.05.2020 01:00:00 13,7 5,0 - - 18 10 OZO 1022,4 26 0,0
31.05.2020 00:00:00 14,8 6,9 - - 16 9 O 1022,1 21 0,0
30.05.2020 23:00:00 16,4 7,6 - - 13 7 O 1021,4 14 0,0
30.05.2020 22:00:00 15,6 7,6 - - 8 4 O 1021,3 11 0,0
30.05.2020 21:00:00 17,6 7,8 - - 9 5 O 1020,6 12 0,0
30.05.2020 20:00:00 19,9 7,3 - - 8 4 OZO 1020,1 14 0,0

tt = temperatuur
td = dauwpunt
tt -20cm = temperatuur -20cm
tt -100cm = temperatuur -100cm
ff = windsnelheid
dd = windrichting
ppp = luchtdruk
vv = zicht
rr = neerslag

Weerstations in de omgeving